#timestamp,LO_Frequency,Hit,StdDev 
1700809215.1,286047002.3,N
1700809235.9,286047001.5,N
1700809255.7,286047001.6,N
1700809275.5,286047004.3,Y
1700809295.4,286047002.6,P
1700809315.2,286047000.7,N
1700809335.0,286047000.3,N
1700809336.0,286047000.3,N
1700809355.8,286047000.7,N
1700809375.6,286047001.2,N
1700809395.5,286047002.3,N
1700809415.3,286046999.7,N
1700809435.1,286046999.7,N
1700809455.9,286047002.3,N
1700809475.7,286047000.1,N
1700809495.6,286047002.7,N
1700809515.4,286047000.4,N
1700809535.2,286047000.6,N
1700809555.1,286047001.2,N
1700809556.0,286047001.2,N
1700809575.8,286047001.0,N
1700809595.6,286046998.6,N
1700809615.5,286046999.1,N
1700809635.3,286046998.4,N
1700809655.2,286046998.8,N
1700809675.9,286046999.2,N
1700809695.7,286046997.3,N
1700809715.6,286046997.4,N
1700809735.4,286046998.0,N
1700809755.2,286046997.4,N
1700809775.1,286046997.1,N
1700809776.0,286046997.1,N
1700809795.8,286046998.9,N
1700809815.7,286046998.4,N
1700809835.5,286046998.6,N
1700809855.3,286047000.9,N
1700809875.2,286046998.8,N
1700809895.0,286046999.3,N
1700809895.9,286046999.3,N
1700809915.8,286046997.0,N
1700809935.6,286046999.2,N
1700809955.5,286046998.9,N
1700809975.3,286046996.9,N
1700809995.1,286046998.7,N
1700810015.9,286046999.0,N
1700810035.7,286047001.1,N
1700810055.6,286047000.8,N
1700810075.4,286046998.4,N
1700810095.2,286046998.6,N
1700810115.1,286047000.8,N
1700810116.0,286047000.8,N
1700810135.8,286047000.4,N
1700810155.7,286046999.7,N
1700810175.5,286047002.2,N
1700810195.3,286047002.0,N
1700810215.2,286047004.4,N
1700810235.0,286047004.4,N
1700810235.9,286047004.4,N
1700810255.7,286047002.5,N
1700810275.6,286047002.5,N
1700810295.4,286047002.8,N
1700810315.3,286046999.9,N
1700810335.1,286047001.4,N
1700810336.0,286047001.4,N
1700810355.8,286047002.0,N
1700810375.7,286047001.5,N
1700810395.5,286047001.7,N
1700810415.3,286047001.8,N
1700810435.2,286047002.1,N
1700810455.0,286047001.8,N
1700810455.9,286047001.8,N
1700810475.8,286047002.7,N
1700810495.6,286047000.5,N
1700810515.4,286047002.8,N
1700810535.3,286046999.7,N
1700810555.1,286046999.7,N
1700810575.8,286047000.2,N
1700810595.7,286047000.1,N
1700810615.5,286047000.9,N
1700810635.4,286047000.4,N
1700810655.2,286047001.1,N
1700810675.4,286046999.8,N
1700810695.3,286047000.4,N
1700810715.1,286047002.4,N
1700810735.8,286047000.4,N
1700810755.7,286047000.0,N
1700810775.5,286046998.1,N
1700810795.4,286047000.5,N
1700810815.2,286047000.6,N
1700810835.0,286047001.0,N
1700810835.9,286047001.0,N
1700810855.8,286046998.6,N
1700810875.6,286046999.5,N
1700810895.5,286046996.7,N
1700810915.3,286046999.6,N
1700810935.1,286046999.2,N
1700810955.9,286046999.6,N
1700810975.7,286046999.4,N
1700810995.6,286046998.5,N
1700811015.4,286047001.1,N
1700811035.2,286047000.5,N
1700811055.1,286047000.0,N
1700811056.0,286047000.0,N
1700811075.8,286047002.7,N
1700811095.6,286047001.9,N
1700811115.5,286047001.4,N
1700811135.3,286047003.8,Y
1700811155.2,286047003.8,P
1700811175.9,286047001.4,N
1700811195.7,286047003.1,N
1700811215.6,286047003.6,N
1700811235.4,286047003.9,N
1700811255.3,286047001.3,N
1700811275.1,286047001.9,N
1700811295.8,286047001.9,N
1700811315.7,286047002.3,N
1700811335.5,286047002.8,N
1700811355.4,286047002.4,N
1700811375.2,286047002.7,N
1700811395.0,286047002.0,N
1700811395.9,286047002.0,N
1700811415.8,286047002.8,N
1700811435.6,286047002.6,N
1700811455.4,286047002.6,N
1700811475.3,286047002.7,N
1700811495.1,286047002.6,N
1700811515.9,286047002.1,N
1700811535.7,286047001.7,N
1700811555.5,286047001.4,N
1700811575.4,286047003.5,Y
1700811595.2,286047000.6,P
1700811615.0,286047000.8,N
1700811615.9,286047000.8,N
1700811635.8,286047000.3,N
1700811655.6,286047000.8,N
1700811675.5,286047000.9,N
1700811695.3,286046999.1,N
1700811715.1,286046998.3,N
1700811735.9,286046998.7,N
1700811755.7,286046998.4,N
1700811775.5,286046998.7,N
1700811795.4,286046999.1,N
1700811815.2,286046997.1,N
1700811835.1,286046997.6,N
1700811836.0,286046997.6,N
1700811855.8,286046997.0,N
1700811875.6,286046997.9,N
1700811895.5,286046997.5,N
1700811915.3,286046997.1,N
1700811935.1,286046997.7,N
1700811955.9,286046997.8,N
1700811975.7,286046999.6,N
1700811995.6,286046999.2,N
1700812015.4,286046998.7,N
1700812035.2,286046998.5,N
1700812055.1,286046998.1,N
1700812056.0,286046998.1,N
1700812075.8,286046998.6,N
1700812095.6,286046998.2,N
1700812115.5,286046998.7,N
1700812135.3,286047001.2,N
1700812155.2,286046998.2,N
1700812175.9,286046998.6,N
1700812195.7,286046998.7,N
1700812215.6,286046998.3,N
1700812235.4,286047001.1,N
1700812255.2,286047000.2,N
1700812275.1,286047000.7,N
1700812276.0,286047000.7,N
1700812295.8,286046998.3,N
1700812315.7,286046999.2,N
1700812335.5,286046999.1,N
1700812355.3,286046997.0,N
1700812375.2,286046996.8,N
1700812395.0,286046994.9,Y
1700812395.9,286046994.9,P
1700812415.8,286046998.7,N
1700812435.6,286046999.0,N
1700812455.4,286046998.7,N
1700812475.3,286046998.3,N
1700812495.1,286047000.8,N
1700812515.8,286047001.2,N
1700812535.7,286047000.9,N
1700812555.5,286046999.8,N
1700812575.4,286047000.2,N
1700812595.2,286047000.8,N
1700812615.0,286047000.8,N
1700812615.9,286047000.8,N
1700812635.8,286046998.8,N
1700812655.6,286046998.5,N
1700812675.4,286047000.4,N
1700812695.3,286046999.7,N
1700812715.1,286047000.6,N
1700812735.9,286047000.6,N
1700812755.7,286047000.9,N
1700812775.5,286047000.2,N
1700812795.4,286047000.2,N
